Elbow Lake, MN

12:46 AM CST on December 07, 2019 (GMT -0600)
Elbow Lake

Weather History for KY63 - November, 2019

Change the Weather History Date:

Saturday, November 16, 2019

  Actual Average (WUND) Record (WUND)
Temperature  
Mean Temperature 40 °F -  
Max Temperature 46 °F - - (-1)
Min Temperature 34 °F - - (-1)
Degree Days  
Heating Degree Days 25    
Moisture  
Dew Point 32 °F    
Average Humidity 77    
Maximum Humidity 93    
Minimum Humidity 57    
Precipitation  
Precipitation 0.00 in - - ()
Sea Level Pressure  
Sea Level Pressure 29.94 in    
Wind  
Wind Speed 13 mph ()    
Max Wind Speed 21 mph    
Max Gust Speed 28 mph    
Visibility 10.0 miles    
Events Rain    
Averages and records for this station are not official NWS values.
T = Trace of Precipitation, MM = Missing Value Source: Averaged Metar Reports

Daily Weather History Graph

Daily Weather History Graph

Search for Another Location

Airport or City:

Astronomy

Nov. 16, 2019 Rise Set
Actual Time 7:25 AM CST 4:51 PM CST
Civil Twilight 6:52 AM CST 5:23 PM CST
Nautical Twilight 6:16 AM CST 6:00 PM CST
Astronomical Twilight 5:41 AM CST 6:35 PM CST
Moon 8:19 PM CST (11/16) 11:26 AM CST (11/16)
Length of Visible Light 10h 30m
Length of Day
9h 25m
Waning Gibbous, 82% of the Moon is Illuminated
Nov 16
Waning Gibbous
Nov 19
Last Quarter
Nov 26
New
Dec 4
First Quarter
Dec 11
Full

Hourly Weather History & Observations

Time (CST) Temp. Windchill Dew Point Humidity Pressure Visibility Wind Dir Wind Speed Gust Speed Precip Events Conditions
12:16 AM 34.0 °F 24.6 °F 29.7 °F 84% 30.09 in 10.0 mi ESE 13.8 mph 18.4 mph N/A   Clear
12:35 AM 34.7 °F 25.5 °F 30.0 °F 83% 30.08 in 10.0 mi ESE 13.8 mph 19.6 mph N/A   Clear
12:55 AM 34.7 °F 26.4 °F 30.2 °F 84% 30.07 in 10.0 mi ESE 11.5 mph 25.3 mph N/A   Clear
1:15 AM 34.5 °F 23.8 °F 30.6 °F 85% 30.06 in 10.0 mi ESE 18.4 mph 24.2 mph N/A   Clear
1:36 AM 34.2 °F 24.4 °F 30.2 °F 85% 30.04 in 10.0 mi ESE 15.0 mph 23.0 mph N/A   Clear
1:55 AM 34.2 °F 25.7 °F 30.2 °F 85% 30.04 in 10.0 mi ESE 11.5 mph - N/A   Clear
2:16 AM 35.1 °F 25.2 °F 30.7 °F 84% 30.02 in 10.0 mi ESE 16.1 mph 23.0 mph N/A   Clear
2:36 AM 35.6 °F 25.9 °F 30.9 °F 83% 30.01 in 10.0 mi East 16.1 mph 21.9 mph N/A   Clear
2:56 AM 36.0 °F 26.3 °F 30.9 °F 82% 30.01 in 10.0 mi ESE 16.1 mph 24.2 mph N/A   Clear
3:15 AM 36.9 °F 26.8 °F 30.9 °F 79% 30.00 in 10.0 mi ESE 18.4 mph - N/A   Clear
3:35 AM 36.9 °F 26.8 °F 30.9 °F 79% 30.00 in 10.0 mi ESE 18.4 mph 26.5 mph N/A   Clear
3:56 AM 36.7 °F 26.3 °F 30.9 °F 80% 29.99 in 10.0 mi ESE 19.6 mph 26.5 mph N/A   Clear
4:15 AM 36.9 °F 26.2 °F 30.7 °F 79% 29.99 in 10.0 mi SE 20.7 mph 26.5 mph N/A   Clear
4:35 AM 37.0 °F 27.4 °F 30.7 °F 78% 29.98 in 10.0 mi ESE 17.3 mph 25.3 mph N/A   Clear
4:55 AM 37.4 °F 27.2 °F 30.7 °F 77% 29.98 in 10.0 mi SE 19.6 mph 25.3 mph N/A   Clear
5:16 AM 37.4 °F 27.5 °F 30.7 °F 77% 29.97 in 10.0 mi SE 18.4 mph 26.5 mph N/A   Clear
5:36 AM 37.4 °F 27.5 °F 30.6 °F 76% 29.97 in 10.0 mi SE 18.4 mph 26.5 mph N/A   Clear
5:56 AM 36.7 °F 26.6 °F 30.4 °F 78% 29.97 in 10.0 mi SE 18.4 mph 24.2 mph N/A   Clear
6:16 AM 36.5 °F 26.0 °F 30.7 °F 80% 29.96 in 10.0 mi SE 19.6 mph 26.5 mph N/A   Clear
6:35 AM 36.5 °F 26.0 °F 30.7 °F 80% 29.96 in 10.0 mi ESE 19.6 mph - N/A   Clear
6:56 AM 36.1 °F 25.9 °F 30.6 °F 80% 29.95 in 10.0 mi SE 18.4 mph 25.3 mph N/A   Clear
7:16 AM 36.0 °F 26.3 °F 30.4 °F 80% 29.95 in 10.0 mi ESE 16.1 mph 26.5 mph N/A   Clear
7:35 AM 35.6 °F 25.2 °F 30.4 °F 81% 29.94 in 10.0 mi SE 18.4 mph 26.5 mph N/A   Clear
7:56 AM 34.9 °F 24.9 °F 30.2 °F 83% 29.96 in 10.0 mi ESE 16.1 mph 21.9 mph N/A   Clear
8:16 AM 35.1 °F 24.8 °F 30.2 °F 82% 29.95 in 10.0 mi ESE 17.3 mph 23.0 mph N/A   Clear
8:35 AM 36.1 °F 26.5 °F 30.4 °F 80% 29.96 in 10.0 mi ESE 16.1 mph - N/A   Clear
8:55 AM 37.0 °F 27.0 °F 30.6 °F 77% 29.96 in 10.0 mi SE 18.4 mph - N/A   Clear
9:55 AM 39.7 °F 30.3 °F 30.7 °F 70% 29.95 in 10.0 mi SSE 19.6 mph 27.6 mph N/A   Clear
10:15 AM 41.7 °F 33.1 °F 30.9 °F 66% 29.95 in 10.0 mi SSE 18.4 mph 27.6 mph N/A   Clear
10:35 AM 40.3 °F 31.6 °F 30.2 °F 67% 29.95 in 10.0 mi SSE 17.3 mph 24.2 mph N/A   Scattered Clouds
10:55 AM 40.8 °F 31.7 °F 30.9 °F 68% 29.94 in 10.0 mi SSE 19.6 mph 24.2 mph N/A   Clear
11:15 AM 42.3 °F 33.8 °F 31.3 °F 65% 29.94 in 10.0 mi SSE 18.4 mph 23.0 mph N/A   Clear
11:36 AM 43.5 °F 35.8 °F 31.6 °F 63% 29.93 in 10.0 mi South 17.3 mph 25.3 mph N/A   Clear
11:56 AM 45.0 °F 37.4 °F 31.6 °F 60% 29.92 in 10.0 mi South 18.4 mph 24.2 mph N/A   Clear
12:15 PM 44.4 °F 36.9 °F 31.8 °F 61% 29.91 in 10.0 mi South 17.3 mph - N/A   Clear
12:36 PM 45.0 °F 37.4 °F 32.0 °F 60% 29.90 in 10.0 mi South 18.4 mph 25.3 mph N/A   Clear
12:56 PM 46.2 °F 39.8 °F 32.0 °F 58% 29.90 in 10.0 mi South 15.0 mph - N/A   Clear
1:15 PM 45.5 °F 38.6 °F 31.6 °F 58% 29.90 in 10.0 mi South 16.1 mph - N/A   Clear
1:36 PM 45.3 °F 39.7 °F 32.0 °F 60% 29.90 in 10.0 mi South 11.5 mph 19.6 mph N/A   Clear
1:55 PM 46.0 °F 39.9 °F 32.0 °F 58% 29.89 in 10.0 mi South 13.8 mph - N/A   Clear
2:15 PM 46.2 °F 39.8 °F 32.0 °F 58% 29.89 in 10.0 mi South 15.0 mph 18.4 mph N/A   Clear
2:36 PM 46.4 °F 40.1 °F 32.0 °F 57% 29.89 in 10.0 mi South 15.0 mph - N/A   Scattered Clouds
2:55 PM 45.9 °F 40.0 °F 32.0 °F 58% 29.89 in 10.0 mi South 12.7 mph 16.1 mph N/A   Scattered Clouds
3:15 PM 45.3 °F 39.7 °F 32.0 °F 60% 29.89 in 10.0 mi South 11.5 mph 16.1 mph N/A   Clear
3:36 PM 44.6 °F 39.2 °F 32.0 °F 61% 29.89 in 10.0 mi SSW 10.4 mph - N/A   Clear
3:56 PM 43.7 °F 39.1 °F 32.0 °F 63% 29.89 in 10.0 mi South 8.1 mph - N/A   Mostly Cloudy
4:16 PM 43.2 °F 39.0 °F 32.0 °F 65% 29.90 in 10.0 mi South 6.9 mph - N/A   Mostly Cloudy
4:35 PM 42.4 °F 38.1 °F 32.0 °F 67% 29.90 in 10.0 mi South 6.9 mph - N/A   Mostly Cloudy
4:56 PM 41.9 °F 37.5 °F 32.0 °F 68% 29.89 in 10.0 mi South 6.9 mph - N/A   Mostly Cloudy
5:15 PM 41.7 °F 36.1 °F 32.0 °F 68% 29.90 in 10.0 mi South 9.2 mph - N/A   Overcast
5:36 PM 41.7 °F 37.3 °F 32.0 °F 68% 29.90 in 10.0 mi South 6.9 mph - N/A   Overcast
5:56 PM 41.0 °F 36.4 °F 32.4 °F 71% 29.90 in 10.0 mi South 6.9 mph - N/A   Drizzle
6:16 PM 40.1 °F 35.3 °F 33.3 °F 77% 29.91 in 10.0 mi South 6.9 mph - N/A   Overcast
6:35 PM 39.6 °F 35.4 °F 33.6 °F 79% 29.92 in 10.0 mi South 5.8 mph - N/A Rain Light Rain
6:56 PM 38.5 °F 34.1 °F 34.7 °F 86% 29.92 in 10.0 mi SSW 5.8 mph - N/A   Light Drizzle
7:15 PM 38.5 °F 33.4 °F 34.9 °F 87% 29.93 in 10.0 mi SSW 6.9 mph - N/A   Overcast
7:35 PM 38.7 °F 32.9 °F 35.2 °F 87% 29.93 in 10.0 mi WSW 8.1 mph - N/A Rain Light Rain
7:55 PM 38.5 °F 32.7 °F 35.6 °F 89% 29.93 in 10.0 mi WSW 8.1 mph - N/A   Light Drizzle
8:15 PM 38.1 °F 32.3 °F 36.0 °F 92% 29.92 in 10.0 mi WSW 8.1 mph - N/A   Overcast
8:35 PM 37.8 °F 31.8 °F 35.8 °F 93% 29.92 in 10.0 mi WSW 8.1 mph - N/A   Overcast
8:55 PM 38.3 °F 33.2 °F 35.8 °F 91% 29.92 in 10.0 mi SW 6.9 mph - N/A   Overcast
9:15 PM 38.3 °F 32.5 °F 36.0 °F 91% 29.92 in 10.0 mi SW 8.1 mph - N/A   Overcast
9:36 PM 38.3 °F 32.5 °F 36.0 °F 91% 29.92 in 10.0 mi West 8.1 mph - N/A   Overcast
9:55 PM 37.8 °F 31.8 °F 36.0 °F 93% 29.92 in 10.0 mi WSW 8.1 mph - N/A   Overcast
10:16 PM 38.3 °F 31.4 °F 36.5 °F 93% 29.92 in 10.0 mi West 10.4 mph - N/A   Overcast
10:35 PM 38.5 °F 32.1 °F 36.5 °F 93% 29.91 in 10.0 mi West 9.2 mph - N/A   Overcast
10:55 PM 38.3 °F 31.4 °F 36.1 °F 92% 29.92 in 10.0 mi NW 10.4 mph - N/A   Overcast
11:15 PM 38.3 °F 30.9 °F 35.8 °F 91% 29.92 in 10.0 mi NW 11.5 mph - N/A   Overcast
11:36 PM 38.1 °F 32.3 °F 35.6 °F 91% 29.92 in 10.0 mi NW 8.1 mph - N/A   Overcast
11:55 PM 38.1 °F 32.3 °F 35.2 °F 89% 29.92 in 10.0 mi NW 8.1 mph - N/A   Overcast